Location: Vihti�l�
(61.3833°N, 23.0667°E)
Time: 03:41:41
(UTC+00:00)

MOS 1 Rocket - Pass Details

Date: 29 November 2020
Orbit: 614 x 831 km, 97.4° (Epoch: 19 January)

Event Time Altitude Azimuth Distance (km) Brightness Sun altitude
Rises 05:13:01 0° 201° (SSW) 3,131 6.7 -12.3°
Reaches altitude 10° 05:15:32 10° 213° (SSW) 2,251 5.8 -12.0°
Maximum altitude 05:19:48 28° 272° (W) 1,422 4.4 -11.6°
Drops below altitude 10° 05:24:18 10° 331° (NNW) 2,376 5.6 -11.1°
Enters shadow 05:25:31 - 337° (NNW) 2,791 6.0 -10.9°
